Red Bluff, CA

5:03 AM PDT on April 30, 2017 (GMT -0700)
Red Bluff Municipal

Weather History for KRBL - November, 2012

Change the Weather History Date:

Tuesday, November 27, 2012

  Actual Average Record
Temperature  
Mean Temperature 50 °F -  
Max Temperature 57 °F 59 °F 76 °F (1969)
Min Temperature 42 °F 40 °F 29 °F (1952)
Degree Days  
Heating Degree Days 16    
Moisture  
Dew Point 43 °F    
Average Humidity 78    
Maximum Humidity 93    
Minimum Humidity 54    
Precipitation  
Precipitation 0.00 in - - ()
Sea Level Pressure  
Sea Level Pressure 30.06 in    
Wind  
Wind Speed 4 mph (NNW)    
Max Wind Speed 6 mph    
Max Gust Speed -    
Visibility 8 miles    
Events      
Averages and records for this station are not official NWS values.
T = Trace of Precipitation, MM = Missing Value Source: NWS Daily Summary

Daily Weather History Graph

Daily Weather History Graph

Search for Another Location

Airport or City:

Trip Planner

Search our weather history database for the weather conditions in past years. The results will help you decide how hot, cold, wet, or windy it might be!

Date:

Astronomy

Nov. 27, 2012 Rise Set
Actual Time 7:08 AM PST 4:44 PM PST
Civil Twilight 6:38 AM PST 5:14 PM PST
Nautical Twilight 6:05 AM PST 5:48 PM PST
Astronomical Twilight 5:32 AM PST 6:20 PM PST
Moon 4:20 PM PST (11/27) 6:18 AM PST (11/27)
Length of Visible Light 10h 36m
Length of Day
9h 36m
Waxing Gibbous, 99% of the Moon is Illuminated
Nov 27
Waxing Gibbous
Nov 28
Full
Dec 6
Last Quarter
Dec 13
New
Dec 19
First Quarter

Hourly Weather History & Observations

Time (PST) Temp. Windchill Dew Point Humidity Pressure Visibility Wind Dir Wind Speed Gust Speed Precip Events Conditions
12:54 AM 43.0 °F 39.5 °F 41.0 °F 93% 30.09 in 7.0 mi NW 5.8 mph - N/A   Clear
1:54 AM 42.1 °F 39.2 °F 39.9 °F 92% 30.09 in 6.0 mi NW 4.6 mph - N/A   Clear
2:54 AM 43.0 °F - 39.9 °F 89% 30.09 in 8.0 mi Calm Calm - N/A   Clear
3:54 AM 42.8 °F 40.1 °F 39.2 °F 87% 30.08 in 10.0 mi NNW 4.6 mph - N/A   Clear
4:54 AM 44.1 °F 40.8 °F 41.0 °F 89% 30.09 in 10.0 mi NNW 5.8 mph - N/A   Clear
5:54 AM 42.1 °F 38.4 °F 39.9 °F 92% 30.09 in 10.0 mi NNW 5.8 mph - N/A   Clear
6:54 AM 43.0 °F 39.5 °F 39.9 °F 89% 30.10 in 10.0 mi North 5.8 mph - N/A   Clear
7:54 AM 45.0 °F 41.8 °F 41.0 °F 86% 30.09 in 10.0 mi NNW 5.8 mph - N/A   Clear
8:54 AM 50.0 °F - 44.1 °F 80% 30.11 in 10.0 mi NNW 5.8 mph - N/A   Clear
9:54 AM 53.1 °F - 44.1 °F 71% 30.11 in 10.0 mi North 4.6 mph - N/A   Clear
10:54 AM 55.9 °F - 43.0 °F 62% 30.11 in 10.0 mi NE 5.8 mph - N/A   Clear
11:54 AM 55.9 °F - 43.0 °F 62% 30.09 in 10.0 mi East 4.6 mph - N/A   Clear
12:54 PM 57.0 °F - 44.1 °F 62% 30.07 in 10.0 mi Variable 3.5 mph - N/A   Clear
1:54 PM 57.9 °F - 44.1 °F 60% 30.05 in 10.0 mi SSE 4.6 mph - N/A   Clear
2:54 PM 57.9 °F - 45.0 °F 62% 30.04 in 10.0 mi SE 4.6 mph - N/A   Clear
3:54 PM 57.0 °F - 45.0 °F 64% 30.03 in 10.0 mi SSE 3.5 mph - N/A   Clear
4:46 PM 53.6 °F - 44.6 °F 72% 30.03 in 1.8 mi South 3.5 mph - N/A   Haze
4:54 PM 53.1 °F - 45.0 °F 74% 30.03 in 1.0 mi SW 3.5 mph - N/A   Haze
5:04 PM 51.8 °F - 44.6 °F 76% 30.03 in 2.0 mi SSW 3.5 mph - N/A   Haze
5:29 PM 51.8 °F - 44.6 °F 76% 30.03 in 5.0 mi Calm Calm - N/A   Haze
5:54 PM 52.0 °F - 45.0 °F 77% 30.04 in 10.0 mi Calm Calm - N/A   Clear
6:18 PM 50.0 °F - 44.6 °F 82% 30.04 in 2.5 mi Calm Calm - N/A   Haze
6:27 PM 50.0 °F - 44.6 °F 82% 30.03 in 6.0 mi Calm Calm - N/A   Haze
6:54 PM 48.9 °F - 45.0 °F 86% 30.04 in 9.0 mi NE 3.5 mph - N/A   Clear
7:54 PM 48.9 °F - 44.1 °F 83% 30.04 in 8.0 mi Calm Calm - N/A   Clear
8:54 PM 48.0 °F - 44.1 °F 86% 30.04 in 7.0 mi Calm Calm - N/A   Clear
9:54 PM 46.9 °F - 43.0 °F 86% 30.04 in 7.0 mi NW 3.5 mph - N/A   Clear
10:54 PM 45.0 °F 43.5 °F 42.1 °F 90% 30.03 in 7.0 mi NNW 3.5 mph - N/A   Clear
11:54 PM 44.1 °F - 41.0 °F 89% 30.03 in 6.0 mi Calm Calm - N/A   Clear